Location: Bennemühlen
(52.5740°N, 9.7135°E)
Time: 12:38:00
(UTC+00:00)

A-11 Canister half - Pass Details

Date: 26 February 2026
Orbit: 1513 x 1686 km, 47.2° (Epoch: 17 March)

Event Time Altitude Azimuth Distance (km) Brightness Sun altitude
Rises 23:35:35 0° 284° (WNW) 4,931 11.8 -45.8°
Reaches altitude 10° 23:39:00 10° 278° (W) 3,927 11.1 -45.8°
Enters shadow 23:39:20 11° 277° (W) 3,834 11.1 -45.8°
Maximum altitude 23:48:03 41° 213° (SSW) 2,240 - -45.8°
Drops below altitude 10° 23:56:50 10° 148° (SSE) 3,801 - -45.6°
Sets 00:00:06 0° 141° (SE) 4,759 - -45.5°
